Location: Chanteloup
(48.8560°N, 2.7390°E)
Time: 19:29:43
(UTC+00:00)

Okean O Rocket - Pass Details

Date: 24 October 2021
Orbit: 623 x 644 km, 98.2° (Epoch: 07 December)

Event Time Altitude Azimuth Distance (km) Brightness Sun altitude
Rises 17:35:01 0° 154° (SSE) 2,894 4.8 -9.3°
Reaches altitude 10° 17:37:13 10° 150° (SSE) 1,994 3.9 -9.7°
Maximum altitude 17:41:29 59° 72° (ENE) 725 1.6 -10.4°
Drops below altitude 10° 17:45:48 10° 353° (N) 2,018 4.2 -11.1°
Sets 17:48:02 0° 349° (N) 2,934 5.1 -11.4°
